Погода в Балдыже

Россия / Брянская область     53°17′29″N   34°04′20″E
темп.,
°C
ветер,
м/с
пор.,
м/с
влажн.,
%
обл.,
%
осадки,
мм/ч
давл.,
гПа
погр.,
м
4 марта, чт
чт400:00−1з511880 0.0 1017306
03:00−1зюз6118830 0.0 1015346
06:00−2зюз6148461 0.0 1011431
09:00−1зюз7138330 0.0 1009550
12:00+1зюз7118565 0.0 1006683
15:00+3з698182 0.0 1004859
18:00+1сз3791100 0.0 1003322
21:000зсз4990100 0.0 1004499
5 марта, пт
пт500:00−1зсз4895100 0.1 1005420
03:00−2ссз369184 0.1 1006181
06:00−2сз2492100 0.0 1007181
09:00−3ссз3581100 0.0 1009277
12:00−1ссз346976 0.0 1010693
15:000ссз446457 0.0 10111023
18:00−2ссз357245 0.0 1012251
21:00−3ссз247548 0.0 1014114
6 марта, сб
сб600:00−4сз12770 0.0 101526
03:00−4юз12780 0.0 101522
06:00−4зюз248669 0.1 1015293
09:00−5зсз577977 0.8 1016613
12:00−3ссз5778100 0.1 1018751
15:00−3ссз81068100 0.3 10181183
18:00−5сз586588 0.0 10191086
21:00−6з387554 0.0 1021462
7 марта, вс
вс700:00−6зюз510710 0.0 1019405
03:00−5юз714636 0.0 1016532
06:00−5юз9166599 0.0 1012750
09:00−4зюз111982100 0.1 10081123
12:00−1зюз121976100 0.6 10041298
15:000зюз132080100 0.6 10011564
18:00−1сз81293100 2.7 1001921
21:00−4зсз51374100 3.6 10031048
8 марта, пн
пн800:00−5з512811 0.0 1004597
03:00−6зсз6137734 0.1 1005954
06:00−7зсз512831 0.0 1006832
09:00−7сз6107947 0.1 10091158
12:00−6сз5772100 0.1 10101149
15:00−5сз6867100 0.1 10111240
18:00−6сз5871100 0.1 10131068
21:00−8сз488897 0.1 1015489